This is the latest recevied weather packets stored in our database for station/object N5SOR-1. If no packets are shown the sender has not sent any weather packets the latest 10 day(s).
| Time | Temp. | Humidity | Pressure | Rain* | Wind** | Luminosity | Snow |
|---|---|---|---|---|---|---|---|
| 1777448369 | 23.89° C | 65% | 1009.8 hPa | 0 mm | - | 0 W/m² | - |
| 1777447708 | 24.44° C | 64% | 1010 hPa | 0 mm | - | 0 W/m² | - |
| 1777447048 | 24.44° C | 63% | 1009.9 hPa | 0 mm | - | 0 W/m² | - |
| 1777446387 | 24.44° C | 63% | 1010.2 hPa | 0 mm | - | 0 W/m² | - |
| 1777445726 | 25° C | 61% | 1010.3 hPa | 0 mm | - | 0 W/m² | - |
| 1777445066 | 25° C | 61% | 1010.4 hPa | 0 mm | - | 0 W/m² | - |
| 1777444405 | 25° C | 62% | 1010.5 hPa | 0 mm | - | 0 W/m² | - |
| 1777443745 | 25° C | 61% | 1010.6 hPa | 0 mm | - | 0 W/m² | - |
| 1777443084 | 25° C | 61% | 1010.5 hPa | 0 mm | - | 0 W/m² | - |
| 1777442423 | 25° C | 61% | 1010.7 hPa | 0 mm | - | 0 W/m² | - |
| 1777441764 | 25° C | 61% | 1010.8 hPa | 0 mm | - | 0 W/m² | - |
| 1777441102 | 25° C | 61% | 1010.9 hPa | 0 mm | - | 0 W/m² | - |
| 1777440441 | 25° C | 60% | 1010.9 hPa | 0 mm | - | 0 W/m² | - |
| 1777439781 | 25° C | 57% | 1011 hPa | 0 mm | - | 0 W/m² | - |
| 1777439121 | 25° C | 56% | 1011.1 hPa | 0 mm | - | 0 W/m² | - |
| 1777438460 | 25.56° C | 55% | 1011.1 hPa | 0 mm | - | 0 W/m² | - |
| 1777437799 | 25.56° C | 55% | 1011.2 hPa | 0 mm | - | 0 W/m² | - |
| 1777437138 | 25.56° C | 54% | 1011.2 hPa | 0 mm | - | 0 W/m² | - |
| 1777436478 | 25.56° C | 50% | 1011.4 hPa | 0 mm | - | 0 W/m² | - |
| 1777435817 | 26.11° C | 46% | 1011.5 hPa | 0 mm | - | 0 W/m² | - |
| 1777435157 | 26.11° C | 41% | 1011.5 hPa | 0 mm | - | 0 W/m² | - |
| 1777434496 | 26.11° C | 30% | 1011.6 hPa | 0 mm | - | 0 W/m² | - |
| 1777433835 | 26.67° C | 25% | 1011.5 hPa | 0 mm | - | 0 W/m² | - |
| 1777433175 | 27.22° C | 20% | 1011.5 hPa | 0 mm | - | 0 W/m² | - |
| 1777432514 | 27.22° C | 18% | 1011.4 hPa | 0 mm | - | 0 W/m² | - |
* Rain latest hour (hover to see other rain measurements)
** Current wind speed in m/s (hover to see current wind gust speed)